Location: Hamilton
(43.2500°N, 79.8330°W)
Time: 04:23:59
(UTC-04:00)

Amateur Radio Satellites - All Passes

Search period start: 25 April 2014 03:53
Search period end: 26 April 2014 03:53
Location: Hamilton, 43.2500°N, 79.8330°W

Satellite Date Start Highest point End Downlink Frequencies (MHz)
Time Altitude Azimuth
AO-Echo 25 Apr 03:58:25 04:03:10 73° 286° (WNW) 04:07:50 ?
Uribyol 2 25 Apr 04:00:25 04:05:31 59° 288° (WNW) 04:10:36 436.500 FM
TMSAT-1 25 Apr 04:15:03 04:20:07 44° 98° (E) 04:25:09 436.925 FM
Uosat F 25 Apr 04:23:07 04:26:32 18° 92° (E) 04:29:55 435.120 FM
JAS-1B 25 Apr 04:37:39 04:42:52 36° 98° (E) 04:48:26 435.800 - 435.900 CW/SSB
AO-27 25 Apr 04:44:31 04:48:44 26° 296° (WNW) 04:52:58 436.795 MHz FM
OPAL 25 Apr 04:44:51 04:47:07 13° 269° (W) 04:49:24 ?
Oscar 19 25 Apr 04:45:40 04:48:33 15° 301° (WNW) 04:51:25 437.125 CW, 437.150 USB
RS-15 25 Apr 04:49:05 04:56:31 21° 100° (E) 05:03:46 29.354 - 29.394 USB, Beacon 29.352 USB
ITAMSAT 1 25 Apr 04:53:49 04:57:44 22° 297° (WNW) 05:01:40 435.822 SSB
Oscar 16 25 Apr 04:55:57 04:57:45 12° 304° (WNW) 04:59:34 437.025 USB, Beacon 2401.1428
Gurwin Techsat 1B 25 Apr 05:10:44 05:15:45 44° 291° (WNW) 05:20:45 435.225 FM
MaSat-1 25 Apr 05:18:01 05:20:07 17° 56° (ENE) 05:22:27 437.345 MHz
AO-7 25 Apr 05:30:20 05:38:23 50° 101° (E) 05:46:23 29.400 - 29.500 MHz
KITSAT 1 25 Apr 05:44:35 05:49:52 18° 337° (NNW) 05:55:10 435.175 FM
STRAND 1 25 Apr 05:52:33 05:56:04 19° 61° (ENE) 05:59:35 ?
TMSAT-1 25 Apr 05:55:30 05:59:48 26° 296° (WNW) 06:04:05 436.925 FM
Uosat F 25 Apr 06:00:46 06:05:39 55° 289° (WNW) 06:10:31 435.120 FM
Hamsat 25 Apr 06:23:28 06:25:25 13° 89° (E) 06:27:22 145.90 MHz
JAS-1B 25 Apr 06:28:35 06:33:33 32° 295° (WNW) 06:38:46 435.800 - 435.900 CW/SSB
Sapphire 25 Apr 06:40:52 06:41:17 10° 29° (NNE) 06:41:41 437.095 MHz 1200 baud AX-25 AFSK
MaSat-1 25 Apr 06:55:38 06:58:26 28° 247° (WSW) 07:01:42 437.345 MHz
RS-15 25 Apr 06:55:51 07:07:10 83° 121° (ESE) 07:18:10 29.354 - 29.394 USB, Beacon 29.352 USB
AO-40 25 Apr 07:02:11 09:49:06 21° 134° (SE) 11:10:34 Beacon 2401.320
PCSat 25 Apr 07:22:49 07:26:35 19° 40° (NE) 07:30:21 145.825 MHz
AO-7 25 Apr 07:23:25 07:31:00 41° 300° (WNW) 07:38:35 29.400 - 29.500 MHz
STRAND 1 25 Apr 07:29:46 07:34:48 59° 259° (W) 07:39:51 ?
KITSAT 1 25 Apr 07:45:14 07:49:16 14° 9° (N) 07:53:16 435.175 FM
Hamsat 25 Apr 07:57:29 08:01:49 62° 286° (WNW) 08:06:07 145.90 MHz
JAS-2 25 Apr 08:12:39 08:18:09 57° 101° (E) 08:24:17 435.800 - 435.900 CW/SSB, 435.910 FM
Sapphire 25 Apr 08:21:07 08:26:16 41° 52° (NE) 08:31:21 437.095 MHz 1200 baud AX-25 AFSK
SO-67 25 Apr 08:21:53 08:25:16 45° 99° (E) 08:28:38 435.3500 MHz FM
Saudisat 1A 25 Apr 08:55:04 08:56:27 11° 108° (ESE) 08:57:50 436.775 MHz
HO-68 25 Apr 08:58:21 09:01:45 14° 87° (E) 09:05:07 435.675 MHz FM
PCSat 25 Apr 09:05:17 09:10:45 87° 241° (WSW) 09:16:10 145.825 MHz
RS-15 25 Apr 09:10:45 09:20:47 37° 327° (NNW) 09:30:42 29.354 - 29.394 USB, Beacon 29.352 USB
KITSAT 1 25 Apr 09:40:58 09:47:54 30° 38° (NE) 09:54:47 435.175 FM
Oscar 11 25 Apr 09:55:40 09:57:13 12° 89° (E) 09:58:45 145.825 FM, Beacon 2401.500 USB
SO-67 25 Apr 09:56:41 09:58:01 12° 295° (WNW) 09:59:21 435.3500 MHz FM
JAS-2 25 Apr 09:58:45 10:02:58 23° 296° (WNW) 10:07:30 435.800 - 435.900 CW/SSB, 435.910 FM
Sapphire 25 Apr 10:04:49 10:09:33 31° 250° (WSW) 10:14:14 437.095 MHz 1200 baud AX-25 AFSK
Saudisat 1A 25 Apr 10:30:55 10:35:23 83° 304° (NW) 10:39:53 436.775 MHz
Oscar 10/S400 25 Apr 10:39:50 12:14:36 53° 229° (SW) 18:35:13 145.825 - 145.975 CW/USB, Beacon 145.810 USB
HO-68 25 Apr 10:43:17 10:50:31 79° 105° (ESE) 10:57:43 435.675 MHz FM
PCSat 25 Apr 10:51:19 10:53:19 12° 258° (WSW) 10:55:19 145.825 MHz
RS-15 25 Apr 11:29:11 11:37:30 23° 1° (N) 11:45:47 29.354 - 29.394 USB, Beacon 29.352 USB
Oscar 11 25 Apr 11:29:30 11:33:51 67° 286° (WNW) 11:38:11 145.825 FM, Beacon 2401.500 USB
KITSAT 1 25 Apr 11:36:06 11:44:14 83° 241° (WSW) 11:52:18 435.175 FM
FUNcube-1 25 Apr 11:38:24 11:42:37 49° 100° (E) 11:46:54 145.950 - 145.970 MHz USB
Saudisat 1A 25 Apr 12:13:08 12:15:42 15° 324° (NW) 12:18:16 436.775 MHz
HO-68 25 Apr 12:32:09 12:37:28 23° 305° (NW) 12:42:47 435.675 MHz FM
ISS 25 Apr 12:35:33 12:36:51 12° 130° (SE) 12:38:09 145.800 FM
Oscar 19 25 Apr 12:45:37 12:48:58 18° 61° (ENE) 12:52:20 437.125 CW, 437.150 USB
AO-27 25 Apr 12:49:21 12:50:15 10° 55° (NE) 12:51:09 436.795 MHz FM
Oscar 16 25 Apr 12:54:23 12:58:18 23° 63° (ENE) 13:02:15 437.025 USB, Beacon 2401.1428
ITAMSAT 1 25 Apr 12:57:05 12:59:06 12° 57° (ENE) 13:01:08 435.822 SSB
FUNcube-1 25 Apr 13:15:54 13:18:41 17° 296° (WNW) 13:21:30 145.950 - 145.970 MHz USB
KITSAT 1 25 Apr 13:33:38 13:38:24 17° 260° (W) 13:43:09 435.175 FM
AO-Echo 25 Apr 13:35:02 13:38:49 21° 64° (ENE) 13:42:31 ?
Uribyol 2 25 Apr 13:40:51 13:45:19 31° 66° (ENE) 13:49:49 436.500 FM
RS-15 25 Apr 13:43:56 13:54:01 39° 35° (NE) 14:04:12 29.354 - 29.394 USB, Beacon 29.352 USB
TMSAT-1 25 Apr 14:01:32 14:03:05 11° 56° (NE) 14:04:39 436.925 FM
ISS 25 Apr 14:09:45 14:13:05 90° 143° (SE) 14:16:26 145.800 FM
Oscar 19 25 Apr 14:22:40 14:27:47 66° 258° (WSW) 14:32:57 437.125 CW, 437.150 USB
AO-27 25 Apr 14:23:41 14:28:50 72° 73° (ENE) 14:34:01 436.795 MHz FM
SO-50 25 Apr 14:31:35 14:35:57 56° 120° (ESE) 14:40:23 436.795 FM
Oscar 16 25 Apr 14:32:20 14:37:19 50° 260° (W) 14:42:21 437.025 USB, Beacon 2401.1428
ITAMSAT 1 25 Apr 14:32:37 14:37:48 84° 75° (ENE) 14:43:00 435.822 SSB
AO-7 25 Apr 14:41:55 14:47:01 18° 47° (NE) 14:52:08 29.400 - 29.500 MHz
Gurwin Techsat 1B 25 Apr 14:53:15 14:58:14 43° 69° (ENE) 15:03:14 435.225 FM
AO-Echo 25 Apr 15:12:12 15:17:14 52° 260° (W) 15:22:10 ?
OPAL 25 Apr 15:12:27 15:16:08 19° 94° (E) 15:19:47 ?
Uribyol 2 25 Apr 15:20:03 15:24:43 35° 263° (W) 15:29:25 436.500 FM
JAS-1B 25 Apr 15:23:43 15:30:28 40° 67° (ENE) 15:36:18 435.800 - 435.900 CW/SSB
TMSAT-1 25 Apr 15:36:50 15:42:06 76° 74° (ENE) 15:47:24 436.925 FM
Uosat F 25 Apr 15:37:12 15:41:29 29° 66° (ENE) 15:45:46 435.120 FM
ISS 25 Apr 15:47:20 15:50:08 24° 346° (NNW) 15:52:57 145.800 FM
RS-15 25 Apr 15:56:27 16:07:22 76° 241° (WSW) 16:18:34 29.354 - 29.394 USB, Beacon 29.352 USB
AO-27 25 Apr 16:06:06 16:08:53 15° 270° (W) 16:11:41 436.795 MHz FM
SO-50 25 Apr 16:13:21 16:16:51 22° 319° (NW) 16:20:24 436.795 FM
ITAMSAT 1 25 Apr 16:16:01 16:17:57 12° 272° (W) 16:19:53 435.822 SSB
UOSAT-12 25 Apr 16:17:32 16:21:44 37° 116° (ESE) 16:26:01 437.025 FM, 437.400 FM
AO-7 25 Apr 16:30:13 16:38:25 72° 68° (ENE) 16:46:40 29.400 - 29.500 MHz
Gurwin Techsat 1B 25 Apr 16:34:01 16:38:21 25° 266° (W) 16:42:43 435.225 FM
OPAL 25 Apr 16:50:14 16:55:22 57° 291° (WNW) 17:00:27 ?
JAS-1B 25 Apr 17:14:07 17:21:07 39° 261° (W) 17:27:08 435.800 - 435.900 CW/SSB
Uosat F 25 Apr 17:15:35 17:20:09 35° 263° (W) 17:24:45 435.120 FM
Saudisat 1A 25 Apr 17:18:18 17:21:15 17° 38° (NE) 17:24:11 436.775 MHz
Hamsat 25 Apr 17:19:21 17:20:37 11° 61° (ENE) 17:21:52 145.90 MHz
TMSAT-1 25 Apr 17:19:53 17:22:36 14° 271° (W) 17:25:20 436.925 FM
ISS 25 Apr 17:25:06 17:27:39 20° 6° (N) 17:30:12 145.800 FM
UOSAT-12 25 Apr 17:57:53 18:01:57 30° 315° (NW) 18:06:05 437.025 FM, 437.400 FM
RS-15 25 Apr 18:11:26 18:17:46 18° 262° (W) 18:24:14 29.354 - 29.394 USB, Beacon 29.352 USB
AO-7 25 Apr 18:25:17 18:31:52 26° 267° (W) 18:38:31 29.400 - 29.500 MHz
JAS-2 25 Apr 18:27:48 18:32:08 25° 65° (ENE) 18:36:18 435.800 - 435.900 CW/SSB, 435.910 FM
Hamsat 25 Apr 18:51:44 18:55:57 77° 258° (WSW) 19:00:15 145.90 MHz
Saudisat 1A 25 Apr 18:56:58 19:01:24 77° 238° (WSW) 19:05:45 436.775 MHz
SO-67 25 Apr 18:57:18 18:59:51 19° 68° (ENE) 19:02:25 435.3500 MHz FM
ISS 25 Apr 19:01:44 19:04:58 44° 26° (NNE) 19:08:12 145.800 FM
HO-68 25 Apr 19:29:42 19:33:09 14° 49° (NE) 19:36:37 435.675 MHz FM
STRAND 1 25 Apr 19:39:22 19:44:13 43° 99° (E) 19:49:02 ?
JAS-2 25 Apr 20:11:49 20:17:05 43° 261° (W) 20:22:03 435.800 - 435.900 CW/SSB, 435.910 FM
SO-67 25 Apr 20:29:54 20:32:51 25° 265° (W) 20:35:50 435.3500 MHz FM
ISS 25 Apr 20:38:40 20:41:34 28° 223° (SW) 20:44:28 145.800 FM
Oscar 11 25 Apr 20:52:36 20:54:07 12° 60° (ENE) 20:55:38 145.825 FM, Beacon 2401.500 USB
MaSat-1 25 Apr 20:59:17 21:01:59 70° 296° (WNW) 21:04:29 437.345 MHz
HO-68 25 Apr 21:12:30 21:19:32 66° 69° (ENE) 21:26:37 435.675 MHz FM
STRAND 1 25 Apr 21:19:04 21:23:10 25° 296° (WNW) 21:27:17 ?
SO-50 25 Apr 21:23:00 21:25:21 14° 34° (NNE) 21:27:42 436.795 FM
Oscar 11 25 Apr 22:25:23 22:29:41 76° 258° (WSW) 22:34:02 145.825 FM, Beacon 2401.500 USB
FUNcube-1 25 Apr 22:36:16 22:40:14 44° 72° (ENE) 22:44:11 145.950 - 145.970 MHz USB
HO-68 25 Apr 23:02:08 23:07:45 25° 267° (W) 23:13:25 435.675 MHz FM
SO-50 25 Apr 23:02:08 23:06:46 68° 54° (NE) 23:11:28 436.795 FM
Sapphire 25 Apr 23:04:37 23:09:12 29° 109° (ESE) 23:13:48 437.095 MHz 1200 baud AX-25 AFSK
UOSAT-12 25 Apr 23:07:53 23:09:04 11° 29° (NNE) 23:10:16 437.025 FM, 437.400 FM
PCSat 25 Apr 23:47:49 23:53:11 71° 117° (ESE) 23:58:36 145.825 MHz
FUNcube-1 26 Apr 00:14:19 00:16:53 16° 268° (W) 00:19:29 145.950 - 145.970 MHz USB
KITSAT 1 26 Apr 00:17:10 00:19:03 11° 97° (E) 00:20:56 435.175 FM
SO-50 26 Apr 00:44:08 00:46:50 15° 250° (WSW) 00:49:33 436.795 FM
UOSAT-12 26 Apr 00:45:52 00:50:26 46° 50° (NE) 00:54:57 437.025 FM, 437.400 FM
Sapphire 26 Apr 00:47:16 00:52:25 44° 308° (NW) 00:57:37 437.095 MHz 1200 baud AX-25 AFSK
PCSat 26 Apr 01:33:01 01:37:10 22° 317° (NW) 01:41:19 145.825 MHz
KITSAT 1 26 Apr 02:04:51 02:12:48 63° 115° (ESE) 02:20:47 435.175 FM
UOSAT-12 26 Apr 02:26:34 02:30:19 24° 248° (WSW) 02:34:02 437.025 FM, 437.400 FM
OPAL 26 Apr 02:27:57 02:32:36 38° 66° (ENE) 02:37:21 ?
Oscar 19 26 Apr 02:33:21 02:38:16 41° 98° (E) 02:43:09 437.125 CW, 437.150 USB
Sapphire 26 Apr 02:36:09 02:37:20 11° 330° (NNW) 02:38:30 437.095 MHz 1200 baud AX-25 AFSK
AO-27 26 Apr 02:36:22 02:40:29 24° 94° (E) 02:44:35 436.795 MHz FM
Oscar 16 26 Apr 02:42:48 02:47:55 54° 100° (E) 02:52:59 437.025 USB, Beacon 2401.1428
ITAMSAT 1 26 Apr 02:44:58 02:49:22 28° 95° (E) 02:53:45 435.822 SSB
Gurwin Techsat 1B 26 Apr 03:09:36 03:12:44 16° 90° (E) 03:15:51 435.225 FM
AO-Echo 26 Apr 03:18:32 03:23:04 45° 99° (E) 03:27:33 ?
Uribyol 2 26 Apr 03:31:01 03:36:14 77° 104° (ESE) 03:41:26 436.500 FM
